Time,TemperatureF,DewpointF,PressureIn,WindDirection,WindDirectionDegrees,WindSpeedMPH,WindSpeedGustMPH,Humidity,HourlyPrecipIn,Conditions,Clouds,dailyrainin,SoftwareType,DateUTC
2013-02-12 00:01:00,53.2,47.3,29.31,East,90,0.0,0.0,80,0.00,,,0.00,WUHU216HW,2013-02-12 06:01:00,
2013-02-12 00:14:00,52.8,47.8,29.30,East,90,8.2,8.2,83,0.00,,,0.00,WUHU216HW,2013-02-12 06:14:00,
2013-02-12 00:19:00,52.5,48.1,29.29,East,90,10.7,10.7,85,0.00,,,0.00,WUHU216HW,2013-02-12 06:19:00,
2013-02-12 00:24:00,52.5,48.1,29.29,NE,45,4.9,10.7,85,0.00,,,0.00,WUHU216HW,2013-02-12 06:24:00,
2013-02-12 00:29:00,52.3,47.9,29.29,East,90,0.0,10.7,85,0.00,,,0.00,WUHU216HW,2013-02-12 06:29:00,
2013-02-12 00:34:00,52.3,48.2,29.30,ENE,68,4.4,4.9,86,0.00,,,0.00,WUHU216HW,2013-02-12 06:34:00,
2013-02-12 00:39:00,52.3,48.2,29.29,East,90,4.0,4.4,86,0.00,,,0.00,WUHU216HW,2013-02-12 06:39:00,
2013-02-12 00:44:00,52.3,48.2,29.29,ESE,113,0.0,4.4,86,0.00,,,0.00,WUHU216HW,2013-02-12 06:44:00,
2013-02-12 00:49:00,52.3,48.2,29.29,NE,45,0.0,4.0,86,0.00,,,0.00,WUHU216HW,2013-02-12 06:49:00,
2013-02-12 00:54:00,52.3,48.2,29.29,East,90,6.0,6.0,86,0.00,,,0.00,WUHU216HW,2013-02-12 06:54:00,
2013-02-12 00:59:00,52.3,48.2,29.29,NE,45,3.5,6.0,86,0.00,,,0.00,WUHU216HW,2013-02-12 06:59:00,
2013-02-12 01:09:00,52.3,48.5,29.28,ENE,68,1.7,3.5,87,0.00,,,0.00,WUHU216HW,2013-02-12 07:09:00,
2013-02-12 01:14:00,52.1,48.3,29.29,ENE,68,2.0,3.5,87,0.00,,,0.00,WUHU216HW,2013-02-12 07:14:00,
2013-02-12 01:19:00,52.1,48.6,29.28,NE,45,0.0,3.8,88,0.00,,,0.00,WUHU216HW,2013-02-12 07:19:00,
2013-02-12 01:24:00,52.1,48.9,29.28,ENE,68,0.0,3.8,89,0.00,,,0.00,WUHU216HW,2013-02-12 07:24:00,
2013-02-12 01:29:00,51.9,48.7,29.28,NE,45,0.0,1.5,89,0.00,,,0.00,WUHU216HW,2013-02-12 07:29:00,
2013-02-12 01:34:00,51.9,48.7,29.27,ENE,68,4.2,4.2,89,0.00,,,0.00,WUHU216HW,2013-02-12 07:34:00,
2013-02-12 01:39:00,51.9,48.7,29.28,East,90,0.0,4.2,89,0.00,,,0.00,WUHU216HW,2013-02-12 07:39:00,
2013-02-12 01:44:00,51.9,49.1,29.27,NE,45,0.0,4.2,90,0.00,,,0.00,WUHU216HW,2013-02-12 07:44:00,
2013-02-12 01:49:00,51.9,49.1,29.28,East,90,0.0,2.0,90,0.00,,,0.00,WUHU216HW,2013-02-12 07:49:00,
2013-02-12 01:54:00,51.9,49.1,29.27,ENE,68,0.0,2.0,90,0.00,,,0.00,WUHU216HW,2013-02-12 07:54:00,
2013-02-12 01:59:00,51.9,49.1,29.27,NE,45,0.0,0.0,90,0.00,,,0.00,WUHU216HW,2013-02-12 07:59:00,
2013-02-12 02:13:00,52.1,49.5,29.27,NE,45,0.0,0.0,91,0.00,,,0.00,WUHU216HW,2013-02-12 08:13:00,
2013-02-12 02:18:00,52.1,49.5,29.25,ENE,68,3.1,3.1,91,0.00,,,0.00,WUHU216HW,2013-02-12 08:18:00,
2013-02-12 02:23:00,52.1,49.5,29.25,NE,45,0.0,3.1,91,0.00,,,0.00,WUHU216HW,2013-02-12 08:23:00,
2013-02-12 02:28:00,51.9,49.3,29.26,NE,45,0.0,2.2,91,0.00,,,0.00,WUHU216HW,2013-02-12 08:28:00,
2013-02-12 02:33:00,51.9,49.3,29.25,NE,45,0.0,0.0,91,0.00,,,0.00,WUHU216HW,2013-02-12 08:33:00,
2013-02-12 02:38:00,51.9,49.3,29.26,East,90,0.0,2.0,91,0.00,,,0.00,WUHU216HW,2013-02-12 08:38:00,
2013-02-12 02:43:00,51.9,49.3,29.25,NE,45,2.2,2.2,91,0.00,,,0.00,WUHU216HW,2013-02-12 08:43:00,
2013-02-12 02:48:00,51.9,49.6,29.25,East,90,0.0,2.2,92,0.00,,,0.00,WUHU216HW,2013-02-12 08:48:00,
2013-02-12 02:53:00,51.6,49.3,29.25,ENE,68,3.3,3.8,92,0.00,,,0.00,WUHU216HW,2013-02-12 08:53:00,
2013-02-12 02:58:00,51.8,49.7,29.24,ENE,68,3.8,4.6,93,0.00,,,0.00,WUHU216HW,2013-02-12 08:58:00,
2013-02-12 03:14:00,51.6,49.6,29.23,ENE,68,3.1,3.8,93,0.00,,,0.00,WUHU216HW,2013-02-12 09:14:00,
2013-02-12 03:19:00,51.6,49.8,29.23,East,90,1.1,3.8,94,0.00,,,0.00,WUHU216HW,2013-02-12 09:19:00,
2013-02-12 03:24:00,51.4,49.7,29.22,ENE,68,3.3,3.5,94,0.00,,,0.00,WUHU216HW,2013-02-12 09:24:00,
2013-02-12 03:29:00,51.6,50.1,29.22,ENE,68,5.8,5.8,95,0.00,,,0.00,WUHU216HW,2013-02-12 09:29:00,
2013-02-12 03:34:00,51.6,50.1,29.22,ESE,113,0.0,5.8,95,0.00,,,0.00,WUHU216HW,2013-02-12 09:34:00,
2013-02-12 03:39:00,51.6,50.1,29.21,East,90,1.3,2.0,95,0.00,,,0.00,WUHU216HW,2013-02-12 09:39:00,
2013-02-12 03:44:00,51.6,50.1,29.21,East,90,4.0,4.0,95,0.00,,,0.00,WUHU216HW,2013-02-12 09:44:00,
2013-02-12 03:49:00,51.6,50.1,29.21,ESE,113,1.5,4.0,95,0.00,,,0.00,WUHU216HW,2013-02-12 09:49:00,
2013-02-12 03:54:00,51.6,50.1,29.21,ENE,68,1.5,1.7,95,0.00,,,0.00,WUHU216HW,2013-02-12 09:54:00,
2013-02-12 03:59:00,51.6,50.1,29.21,East,90,1.3,1.7,95,0.00,,,0.00,WUHU216HW,2013-02-12 09:59:00,
2013-02-12 04:07:00,51.6,50.1,29.21,ENE,68,4.6,4.6,95,0.00,,,0.00,WUHU216HW,2013-02-12 10:07:00,
2013-02-12 04:12:00,51.6,50.1,29.20,East,90,2.2,4.6,95,0.00,,,0.00,WUHU216HW,2013-02-12 10:12:00,
2013-02-12 04:17:00,51.4,50.2,29.19,East,90,4.0,6.2,96,0.00,,,0.00,WUHU216HW,2013-02-12 10:17:00,
2013-02-12 04:22:00,51.4,50.2,29.20,ENE,68,4.9,6.2,96,0.00,,,0.00,WUHU216HW,2013-02-12 10:22:00,
2013-02-12 04:27:00,51.4,50.2,29.19,East,90,4.4,4.9,96,0.00,,,0.00,WUHU216HW,2013-02-12 10:27:00,
2013-02-12 04:32:00,51.6,50.7,29.19,ENE,68,5.1,8.2,97,0.00,,,0.00,WUHU216HW,2013-02-12 10:32:00,
2013-02-12 04:37:00,51.6,50.7,29.19,ENE,68,3.1,8.2,97,0.00,,,0.00,WUHU216HW,2013-02-12 10:37:00,
2013-02-12 04:42:00,51.6,50.7,29.19,East,90,4.4,7.6,97,0.00,,,0.00,WUHU216HW,2013-02-12 10:42:00,
2013-02-12 04:47:00,51.6,50.7,29.19,East,90,2.2,7.6,97,0.00,,,0.00,WUHU216HW,2013-02-12 10:47:00,
2013-02-12 04:52:00,51.6,50.7,29.20,ENE,68,0.0,7.6,97,0.00,,,0.00,WUHU216HW,2013-02-12 10:52:00,
2013-02-12 04:57:00,51.6,50.7,29.20,ENE,68,0.0,2.2,97,0.00,,,0.00,WUHU216HW,2013-02-12 10:57:00,
2013-02-12 05:02:00,51.8,50.9,29.20,ENE,68,0.0,0.0,97,0.00,,,0.00,WUHU216HW,2013-02-12 11:02:00,
2013-02-12 05:07:00,51.8,50.9,29.20,East,90,0.0,0.0,97,0.00,,,0.00,WUHU216HW,2013-02-12 11:07:00,
2013-02-12 05:12:00,51.9,51.1,29.20,West,270,0.0,0.0,97,0.00,,,0.00,WUHU216HW,2013-02-12 11:12:00,
2013-02-12 05:17:00,51.9,51.1,29.20,ESE,113,0.0,0.0,97,0.00,,,0.00,WUHU216HW,2013-02-12 11:17:00,
2013-02-12 05:22:00,51.9,50.8,29.19,ESE,113,0.0,2.2,96,0.00,,,0.00,WUHU216HW,2013-02-12 11:22:00,
2013-02-12 05:27:00,51.9,50.8,29.20,SE,135,0.0,2.2,96,0.00,,,0.00,WUHU216HW,2013-02-12 11:27:00,
2013-02-12 05:32:00,52.1,51.0,29.20,ENE,68,2.6,2.6,96,0.00,,,0.00,WUHU216HW,2013-02-12 11:32:00,
2013-02-12 05:37:00,52.1,51.0,29.19,East,90,0.0,2.6,96,0.00,,,0.00,WUHU216HW,2013-02-12 11:37:00,
2013-02-12 05:42:00,51.9,50.8,29.19,ENE,68,0.8,3.5,96,0.00,,,0.00,WUHU216HW,2013-02-12 11:42:00,
2013-02-12 05:47:00,51.9,50.8,29.19,East,90,0.0,3.5,96,0.00,,,0.00,WUHU216HW,2013-02-12 11:47:00,
2013-02-12 05:52:00,51.9,50.8,29.18,ENE,68,2.0,3.5,96,0.00,,,0.00,WUHU216HW,2013-02-12 11:52:00,
2013-02-12 05:57:00,51.9,50.8,29.18,East,90,2.2,3.5,96,0.00,,,0.00,WUHU216HW,2013-02-12 11:57:00,
2013-02-12 06:02:00,51.8,50.6,29.18,ENE,68,2.9,4.9,96,0.00,,,0.00,WUHU216HW,2013-02-12 12:02:00,
2013-02-12 06:07:00,51.9,50.8,29.18,ENE,68,1.5,4.9,96,0.00,,,0.00,WUHU216HW,2013-02-12 12:07:00,
2013-02-12 06:12:00,51.9,51.1,29.19,ENE,68,0.0,2.9,97,0.00,,,0.00,WUHU216HW,2013-02-12 12:12:00,
2013-02-12 06:17:00,51.8,50.9,29.19,East,90,0.0,1.5,97,0.00,,,0.00,WUHU216HW,2013-02-12 12:17:00,
2013-02-12 06:22:00,51.8,50.9,29.18,ENE,68,0.0,0.0,97,0.00,,,0.00,WUHU216HW,2013-02-12 12:22:00,
2013-02-12 06:27:00,51.9,51.1,29.18,NE,45,0.0,0.0,97,0.00,,,0.00,WUHU216HW,2013-02-12 12:27:00,
2013-02-12 06:32:00,51.9,51.1,29.19,ENE,68,0.0,0.0,97,0.00,,,0.00,WUHU216HW,2013-02-12 12:32:00,
2013-02-12 06:37:00,51.9,51.1,29.19,SSE,158,0.0,0.0,97,0.00,,,0.00,WUHU216HW,2013-02-12 12:37:00,
2013-02-12 06:42:00,52.1,51.2,29.19,East,90,0.0,0.0,97,0.00,,,0.00,WUHU216HW,2013-02-12 12:42:00,
2013-02-12 06:47:00,52.3,51.4,29.20,NW,315,0.0,0.0,97,0.00,,,0.00,WUHU216HW,2013-02-12 12:47:00,
2013-02-12 06:52:00,52.3,51.1,29.20,NW,315,0.0,0.0,96,0.00,,,0.00,WUHU216HW,2013-02-12 12:52:00,
2013-02-12 06:57:00,52.5,51.3,29.21,West,270,0.0,0.0,96,0.00,,,0.00,WUHU216HW,2013-02-12 12:57:00,
2013-02-12 07:02:00,52.7,51.5,29.21,WNW,293,0.0,0.0,96,0.00,,,0.00,WUHU216HW,2013-02-12 13:02:00,
2013-02-12 07:07:00,52.8,51.7,29.21,WNW,293,0.0,0.0,96,0.00,,,0.00,WUHU216HW,2013-02-12 13:07:00,
2013-02-12 07:12:00,52.8,51.7,29.21,NW,315,0.0,0.0,96,0.00,,,0.00,WUHU216HW,2013-02-12 13:12:00,
2013-02-12 07:17:00,52.8,51.7,29.21,WNW,293,0.0,0.0,96,0.00,,,0.00,WUHU216HW,2013-02-12 13:17:00,
2013-02-12 07:22:00,53.0,51.6,29.21,NNW,338,0.0,0.0,95,0.00,,,0.00,WUHU216HW,2013-02-12 13:22:00,
2013-02-12 07:27:00,53.2,52.0,29.21,WNW,293,0.0,0.0,96,0.00,,,0.00,WUHU216HW,2013-02-12 13:27:00,
2013-02-12 07:32:00,53.2,51.8,29.21,NW,315,0.0,0.0,95,0.00,,,0.00,WUHU216HW,2013-02-12 13:32:00,
2013-02-12 07:37:00,53.2,51.8,29.21,NW,315,0.0,0.0,95,0.00,,,0.00,WUHU216HW,2013-02-12 13:37:00,
2013-02-12 07:42:00,53.2,51.8,29.22,NW,315,0.0,0.0,95,0.00,,,0.00,WUHU216HW,2013-02-12 13:42:00,
2013-02-12 07:47:00,53.4,51.6,29.22,WNW,293,0.0,0.0,94,0.00,,,0.00,WUHU216HW,2013-02-12 13:47:00,
2013-02-12 07:52:00,53.2,51.5,29.22,West,270,0.0,0.0,94,0.00,,,0.00,WUHU216HW,2013-02-12 13:52:00,
2013-02-12 07:57:00,53.2,51.5,29.22,SW,225,0.0,0.0,94,0.00,,,0.00,WUHU216HW,2013-02-12 13:57:00,
2013-02-12 08:02:00,53.4,51.6,29.22,WSW,248,0.0,0.0,94,0.00,,,0.00,WUHU216HW,2013-02-12 14:02:00,
2013-02-12 08:07:00,53.4,51.6,29.22,West,270,0.0,0.0,94,0.00,,,0.00,WUHU216HW,2013-02-12 14:07:00,
2013-02-12 08:12:00,53.4,51.6,29.23,SW,225,0.0,0.0,94,0.00,,,0.00,WUHU216HW,2013-02-12 14:12:00,
2013-02-12 08:17:00,53.4,51.6,29.23,WSW,248,0.0,0.0,94,0.00,,,0.00,WUHU216HW,2013-02-12 14:17:00,
2013-02-12 08:22:00,53.4,51.6,29.23,West,270,0.0,0.0,94,0.00,,,0.00,WUHU216HW,2013-02-12 14:22:00,
2013-02-12 08:27:00,53.6,51.8,29.23,WSW,248,0.0,0.0,94,0.00,,,0.00,WUHU216HW,2013-02-12 14:27:00,
2013-02-12 08:32:00,53.7,52.0,29.23,WSW,248,0.0,0.0,94,0.00,,,0.00,WUHU216HW,2013-02-12 14:32:00,
2013-02-12 08:37:00,53.7,51.7,29.23,West,270,0.0,0.0,93,0.00,,,0.00,WUHU216HW,2013-02-12 14:37:00,
2013-02-12 08:42:00,53.9,51.9,29.24,WSW,248,0.0,0.0,93,0.00,,,0.00,WUHU216HW,2013-02-12 14:42:00,
2013-02-12 08:47:00,53.9,51.9,29.24,West,270,0.0,1.3,93,0.00,,,0.00,WUHU216HW,2013-02-12 14:47:00,
2013-02-12 08:52:00,53.9,51.9,29.25,WNW,293,0.0,1.3,93,0.00,,,0.00,WUHU216HW,2013-02-12 14:52:00,
2013-02-12 08:57:00,53.9,51.9,29.25,NW,315,0.0,0.0,93,0.00,,,0.00,WUHU216HW,2013-02-12 14:57:00,
2013-02-12 09:02:00,53.9,51.9,29.24,WNW,293,0.0,0.0,93,0.00,,,0.00,WUHU216HW,2013-02-12 15:02:00,
2013-02-12 09:07:00,54.1,52.1,29.24,WNW,293,0.0,0.0,93,0.00,,,0.00,WUHU216HW,2013-02-12 15:07:00,
2013-02-12 09:12:00,54.1,51.8,29.24,WSW,248,0.0,0.0,92,0.00,,,0.00,WUHU216HW,2013-02-12 15:12:00,
2013-02-12 09:17:00,54.3,52.0,29.24,SW,225,0.0,0.0,92,0.00,,,0.00,WUHU216HW,2013-02-12 15:17:00,
2013-02-12 09:22:00,54.3,52.0,29.24,West,270,0.0,0.0,92,0.00,,,0.00,WUHU216HW,2013-02-12 15:22:00,
2013-02-12 09:27:00,54.5,52.1,29.24,WSW,248,0.0,0.0,92,0.00,,,0.00,WUHU216HW,2013-02-12 15:27:00,
2013-02-12 09:32:00,54.6,52.3,29.26,WSW,248,0.0,0.0,92,0.00,,,0.00,WUHU216HW,2013-02-12 15:32:00,
2013-02-12 09:37:00,55.0,52.7,29.26,West,270,0.0,1.1,92,0.00,,,0.00,WUHU216HW,2013-02-12 15:37:00,
2013-02-12 09:42:00,55.2,52.9,29.25,WSW,248,0.0,1.1,92,0.00,,,0.00,WUHU216HW,2013-02-12 15:42:00,
2013-02-12 09:47:00,55.2,52.6,29.25,West,270,0.0,0.0,91,0.00,,,0.00,WUHU216HW,2013-02-12 15:47:00,
2013-02-12 09:52:00,55.5,52.9,29.25,WNW,293,0.0,0.0,91,0.00,,,0.00,WUHU216HW,2013-02-12 15:52:00,
2013-02-12 09:57:00,55.5,52.9,29.25,WSW,248,0.0,0.0,91,0.00,,,0.00,WUHU216HW,2013-02-12 15:57:00,
2013-02-12 10:02:00,55.9,53.3,29.25,West,270,0.0,0.0,91,0.00,,,0.00,WUHU216HW,2013-02-12 16:02:00,
2013-02-12 10:07:00,56.1,53.5,29.25,WNW,293,0.0,0.0,91,0.00,,,0.00,WUHU216HW,2013-02-12 16:07:00,
2013-02-12 10:12:00,56.4,53.8,29.25,WSW,248,0.0,0.0,91,0.00,,,0.00,WUHU216HW,2013-02-12 16:12:00,
2013-02-12 10:17:00,56.8,53.9,29.25,NNW,338,0.0,0.0,90,0.00,,,0.00,WUHU216HW,2013-02-12 16:17:00,
2013-02-12 10:22:00,57.0,53.8,29.25,WNW,293,1.5,3.1,89,0.00,,,0.00,WUHU216HW,2013-02-12 16:22:00,
2013-02-12 10:27:00,57.5,54.3,29.25,NNW,338,0.0,3.1,89,0.00,,,0.00,WUHU216HW,2013-02-12 16:27:00,
2013-02-12 10:32:00,58.4,55.2,29.25,WNW,293,0.0,1.1,89,0.00,,,0.00,WUHU216HW,2013-02-12 16:32:00,
2013-02-12 10:37:00,58.8,55.2,29.26,WNW,293,0.8,1.1,88,0.00,,,0.00,WUHU216HW,2013-02-12 16:37:00,
2013-02-12 10:43:00,59.0,55.1,29.25,SW,225,1.1,1.1,87,0.00,,,0.00,WUHU216HW,2013-02-12 16:43:00,
2013-02-12 10:48:00,59.3,55.5,29.26,NNW,338,2.4,2.4,87,0.00,,,0.00,WUHU216HW,2013-02-12 16:48:00,
2013-02-12 10:53:00,59.7,55.5,29.27,NNW,338,2.9,2.9,86,0.00,,,0.00,WUHU216HW,2013-02-12 16:53:00,
2013-02-12 10:58:00,59.9,55.4,29.26,West,270,4.6,4.6,85,0.00,,,0.00,WUHU216HW,2013-02-12 16:58:00,
2013-02-12 11:03:00,60.0,55.2,29.26,NNW,338,4.0,4.6,84,0.00,,,0.00,WUHU216HW,2013-02-12 17:03:00,
2013-02-12 11:08:00,60.2,55.4,29.25,North,0,2.4,4.0,84,0.00,,,0.00,WUHU216HW,2013-02-12 17:08:00,
2013-02-12 11:13:00,60.6,55.7,29.26,West,270,2.0,4.0,84,0.00,,,0.00,WUHU216HW,2013-02-12 17:13:00,
2013-02-12 11:18:00,61.1,55.6,29.26,NW,315,1.7,8.5,82,0.00,,,0.00,WUHU216HW,2013-02-12 17:18:00,
2013-02-12 11:23:00,61.5,55.6,29.26,WNW,293,0.0,8.5,81,0.00,,,0.00,WUHU216HW,2013-02-12 17:23:00,
2013-02-12 11:28:00,61.3,55.4,29.26,WNW,293,0.6,2.2,81,0.00,,,0.00,WUHU216HW,2013-02-12 17:28:00,
2013-02-12 11:33:00,61.5,55.3,29.25,WNW,293,3.5,3.5,80,0.00,,,0.00,WUHU216HW,2013-02-12 17:33:00,
2013-02-12 11:38:00,61.8,55.2,29.24,North,0,3.3,5.1,79,0.00,,,0.00,WUHU216HW,2013-02-12 17:38:00,
2013-02-12 11:43:00,61.8,55.2,29.24,WNW,293,6.0,6.0,79,0.00,,,0.00,WUHU216HW,2013-02-12 17:43:00,
2013-02-12 11:48:00,62.4,55.0,29.24,WNW,293,8.5,8.5,77,0.00,,,0.00,WUHU216HW,2013-02-12 17:48:00,
2013-02-12 11:53:00,62.7,55.4,29.24,SW,225,2.0,8.5,77,0.00,,,0.00,WUHU216HW,2013-02-12 17:53:00,
2013-02-12 11:58:00,63.1,55.0,29.23,West,270,4.0,8.5,75,0.00,,,0.00,WUHU216HW,2013-02-12 17:58:00,
2013-02-12 12:03:00,64.2,56.1,29.24,NW,315,2.0,4.0,75,0.00,,,0.00,WUHU216HW,2013-02-12 18:03:00,
2013-02-12 12:08:00,64.7,55.5,29.24,WNW,293,2.2,2.4,72,0.00,,,0.00,WUHU216HW,2013-02-12 18:08:00,
2013-02-12 12:13:00,65.1,55.5,29.23,WNW,293,1.5,4.9,71,0.00,,,0.00,WUHU216HW,2013-02-12 18:13:00,
2013-02-12 12:18:00,65.8,55.7,29.23,NNW,338,1.1,6.2,70,0.00,,,0.00,WUHU216HW,2013-02-12 18:18:00,
2013-02-12 12:23:00,66.2,55.7,29.23,North,0,4.0,6.2,69,0.00,,,0.00,WUHU216HW,2013-02-12 18:23:00,
2013-02-12 12:28:00,66.5,55.6,29.23,NW,315,5.8,6.7,68,0.00,,,0.00,WUHU216HW,2013-02-12 18:28:00,
2013-02-12 12:33:00,66.5,55.2,29.23,NNW,338,5.3,6.7,67,0.00,,,0.00,WUHU216HW,2013-02-12 18:33:00,
2013-02-12 12:38:00,66.5,55.2,29.22,WNW,293,0.0,5.3,67,0.00,,,0.00,WUHU216HW,2013-02-12 18:38:00,
2013-02-12 12:43:00,66.7,55.4,29.22,WNW,293,0.0,5.3,67,0.00,,,0.00,WUHU216HW,2013-02-12 18:43:00,
2013-02-12 12:48:00,66.9,55.1,29.22,WNW,293,5.1,6.0,66,0.00,,,0.00,WUHU216HW,2013-02-12 18:48:00,
2013-02-12 12:53:00,66.9,54.7,29.22,WNW,293,0.0,6.0,65,0.00,,,0.00,WUHU216HW,2013-02-12 18:53:00,
2013-02-12 12:58:00,66.9,54.7,29.21,NW,315,0.8,5.1,65,0.00,,,0.00,WUHU216HW,2013-02-12 18:58:00,
2013-02-12 13:03:00,67.2,55.0,29.20,NW,315,0.0,5.8,65,0.00,,,0.00,WUHU216HW,2013-02-12 19:03:00,
2013-02-12 13:08:00,67.8,55.5,29.20,WSW,248,2.4,5.8,65,0.00,,,0.00,WUHU216HW,2013-02-12 19:08:00,
2013-02-12 13:13:00,68.1,55.4,29.20,WNW,293,1.3,5.8,64,0.00,,,0.00,WUHU216HW,2013-02-12 19:13:00,
2013-02-12 13:18:00,68.7,55.5,29.19,NW,315,4.4,5.5,63,0.00,,,0.00,WUHU216HW,2013-02-12 19:18:00,
2013-02-12 13:23:00,69.0,55.5,29.19,SW,225,1.5,5.5,62,0.00,,,0.00,WUHU216HW,2013-02-12 19:23:00,
2013-02-12 13:28:00,69.6,56.0,29.19,West,270,0.0,4.4,62,0.00,,,0.00,WUHU216HW,2013-02-12 19:28:00,
2013-02-12 13:33:00,69.8,55.8,29.19,NNE,23,0.0,1.3,61,0.00,,,0.00,WUHU216HW,2013-02-12 19:33:00,
2013-02-12 13:38:00,69.9,55.5,29.18,SW,225,3.5,3.5,60,0.00,,,0.00,WUHU216HW,2013-02-12 19:38:00,
2013-02-12 13:43:00,69.9,55.0,29.17,West,270,0.0,3.5,59,0.00,,,0.00,WUHU216HW,2013-02-12 19:43:00,
2013-02-12 13:48:00,70.3,55.8,29.17,West,270,0.0,1.7,60,0.00,,,0.00,WUHU216HW,2013-02-12 19:48:00,
2013-02-12 13:53:00,70.7,55.7,29.17,WSW,248,1.1,1.3,59,0.00,,,0.00,WUHU216HW,2013-02-12 19:53:00,
2013-02-12 13:58:00,70.8,55.8,29.16,ESE,113,0.0,1.3,59,0.00,,,0.00,WUHU216HW,2013-02-12 19:58:00,
2013-02-12 14:03:00,71.0,55.5,29.16,North,0,0.8,2.4,58,0.00,,,0.00,WUHU216HW,2013-02-12 20:03:00,
2013-02-12 14:08:00,71.2,55.6,29.16,North,0,1.7,2.4,58,0.00,,,0.00,WUHU216HW,2013-02-12 20:08:00,
2013-02-12 14:13:00,70.8,54.3,29.16,NNW,338,0.0,6.2,56,0.00,,,0.00,WUHU216HW,2013-02-12 20:13:00,
2013-02-12 14:18:00,70.8,52.3,29.15,WNW,293,1.7,6.2,52,0.00,,,0.00,WUHU216HW,2013-02-12 20:18:00,
2013-02-12 14:23:00,71.4,51.2,29.15,WSW,248,3.1,6.0,49,0.00,,,0.00,WUHU216HW,2013-02-12 20:23:00,
2013-02-12 14:28:00,71.7,50.9,29.14,WNW,293,5.1,6.0,48,0.00,,,0.00,WUHU216HW,2013-02-12 20:28:00,
2013-02-12 14:33:00,71.9,51.1,29.14,SW,225,3.3,5.1,48,0.00,,,0.00,WUHU216HW,2013-02-12 20:33:00,
2013-02-12 14:38:00,72.5,50.4,29.14,West,270,3.3,10.9,46,0.00,,,0.00,WUHU216HW,2013-02-12 20:38:00,
2013-02-12 14:43:00,72.8,50.7,29.14,WSW,248,4.2,10.9,46,0.00,,,0.00,WUHU216HW,2013-02-12 20:43:00,
2013-02-12 14:48:00,73.0,50.3,29.14,West,270,3.8,4.4,45,0.00,,,0.00,WUHU216HW,2013-02-12 20:48:00,
2013-02-12 14:53:00,73.2,49.2,29.14,NW,315,10.9,10.9,43,0.00,,,0.00,WUHU216HW,2013-02-12 20:53:00,
2013-02-12 14:58:00,73.2,48.0,29.14,SSW,203,6.4,10.9,41,0.00,,,0.00,WUHU216HW,2013-02-12 20:58:00,
2013-02-12 15:03:00,73.2,47.4,29.14,WSW,248,10.5,10.9,40,0.00,,,0.00,WUHU216HW,2013-02-12 21:03:00,
2013-02-12 15:08:00,73.0,45.8,29.14,West,270,2.2,10.5,38,0.00,,,0.00,WUHU216HW,2013-02-12 21:08:00,
2013-02-12 15:13:00,72.6,46.2,29.14,NW,315,6.4,6.4,39,0.00,,,0.00,WUHU216HW,2013-02-12 21:13:00,
2013-02-12 15:18:00,72.6,45.5,29.14,NW,315,15.4,15.4,38,0.00,,,0.00,WUHU216HW,2013-02-12 21:18:00,
2013-02-12 15:23:00,72.8,45.6,29.14,WSW,248,9.8,15.4,38,0.00,,,0.00,WUHU216HW,2013-02-12 21:23:00,
2013-02-12 15:28:00,72.6,43.2,29.14,WSW,248,8.5,24.8,35,0.00,,,0.00,WUHU216HW,2013-02-12 21:28:00,
2013-02-12 15:33:00,72.3,42.9,29.13,NW,315,1.5,24.8,35,0.00,,,0.00,WUHU216HW,2013-02-12 21:33:00,
2013-02-12 15:38:00,71.9,41.9,29.13,WNW,293,9.1,18.1,34,0.00,,,0.00,WUHU216HW,2013-02-12 21:38:00,
2013-02-12 15:43:00,71.4,41.4,29.13,WNW,293,2.0,18.1,34,0.00,,,0.00,WUHU216HW,2013-02-12 21:43:00,
2013-02-12 15:48:00,71.4,40.7,29.14,SW,225,9.1,14.0,33,0.00,,,0.00,WUHU216HW,2013-02-12 21:48:00,
2013-02-12 15:53:00,71.2,39.0,29.13,WSW,248,15.8,15.8,31,0.00,,,0.00,WUHU216HW,2013-02-12 21:53:00,
2013-02-12 15:58:00,70.8,38.7,29.14,WSW,248,5.1,15.8,31,0.00,,,0.00,WUHU216HW,2013-02-12 21:58:00,
2013-02-12 16:03:00,70.8,38.7,29.14,West,270,8.9,11.8,31,0.00,,,0.00,WUHU216HW,2013-02-12 22:03:00,
2013-02-12 16:08:00,70.8,38.7,29.14,WNW,293,6.4,11.8,31,0.00,,,0.00,WUHU216HW,2013-02-12 22:08:00,
2013-02-12 16:13:00,70.8,38.0,29.14,WNW,293,2.4,9.6,30,0.00,,,0.00,WUHU216HW,2013-02-12 22:13:00,
2013-02-12 16:18:00,70.8,38.7,29.14,West,270,9.1,9.1,31,0.00,,,0.00,WUHU216HW,2013-02-12 22:18:00,
2013-02-12 16:23:00,70.7,37.8,29.14,WSW,248,6.7,9.1,30,0.00,,,0.00,WUHU216HW,2013-02-12 22:23:00,
2013-02-12 16:28:00,70.5,37.6,29.14,WSW,248,17.8,17.8,30,0.00,,,0.00,WUHU216HW,2013-02-12 22:28:00,
2013-02-12 16:33:00,70.5,36.6,29.15,West,270,2.9,17.8,29,0.00,,,0.00,WUHU216HW,2013-02-12 22:33:00,
2013-02-12 16:38:00,70.3,35.4,29.15,West,270,2.9,17.8,28,0.00,,,0.00,WUHU216HW,2013-02-12 22:38:00,
2013-02-12 16:43:00,69.9,34.1,29.14,SW,225,9.1,12.0,27,0.00,,,0.00,WUHU216HW,2013-02-12 22:43:00,
2013-02-12 16:48:00,69.8,33.0,29.15,SW,225,16.1,16.1,26,0.00,,,0.00,WUHU216HW,2013-02-12 22:48:00,
2013-02-12 16:53:00,69.6,32.8,29.16,West,270,4.9,16.1,26,0.00,,,0.00,WUHU216HW,2013-02-12 22:53:00,
2013-02-12 16:58:00,69.2,32.5,29.16,SW,225,4.6,12.9,26,0.00,,,0.00,WUHU216HW,2013-02-12 22:58:00,
2013-02-12 17:03:00,69.0,32.3,29.16,WNW,293,5.3,12.9,26,0.00,,,0.00,WUHU216HW,2013-02-12 23:03:00,
2013-02-12 17:08:00,68.7,33.0,29.16,SW,225,4.0,9.6,27,0.00,,,0.00,WUHU216HW,2013-02-12 23:08:00,
2013-02-12 17:13:00,68.3,31.7,29.16,WSW,248,5.5,7.3,26,0.00,,,0.00,WUHU216HW,2013-02-12 23:13:00,
2013-02-12 17:18:00,68.1,31.6,29.16,West,270,18.3,18.3,26,0.00,,,0.00,WUHU216HW,2013-02-12 23:18:00,
2013-02-12 17:23:00,67.8,31.2,29.17,West,270,4.6,18.3,26,0.00,,,0.00,WUHU216HW,2013-02-12 23:23:00,
2013-02-12 17:28:00,67.8,30.3,29.18,WSW,248,9.1,12.3,25,0.00,,,0.00,WUHU216HW,2013-02-12 23:28:00,
2013-02-12 17:33:00,67.6,30.1,29.18,SSW,203,2.6,15.4,25,0.00,,,0.00,WUHU216HW,2013-02-12 23:33:00,
2013-02-12 17:38:00,67.4,30.9,29.18,WSW,248,20.8,20.8,26,0.00,,,0.00,WUHU216HW,2013-02-12 23:38:00,
2013-02-12 17:43:00,67.1,29.6,29.18,East,90,3.1,20.8,25,0.00,,,0.00,WUHU216HW,2013-02-12 23:43:00,
2013-02-12 17:48:00,66.9,30.5,29.18,WSW,248,3.3,9.6,26,0.00,,,0.00,WUHU216HW,2013-02-12 23:48:00,
2013-02-12 17:53:00,66.7,30.3,29.19,WSW,248,3.1,8.0,26,0.00,,,0.00,WUHU216HW,2013-02-12 23:53:00,
2013-02-12 17:58:00,66.3,30.0,29.19,West,270,4.4,4.4,26,0.00,,,0.00,WUHU216HW,2013-02-12 23:58:00,
2013-02-12 18:03:00,66.2,29.9,29.19,West,270,3.3,4.4,26,0.00,,,0.00,WUHU216HW,2013-02-13 00:03:00,
2013-02-12 18:08:00,65.8,27.6,29.19,WSW,248,5.8,7.1,25,0.00,,,0.00,WUHU216HW,2013-02-13 00:08:00,
2013-02-12 18:13:00,65.4,28.3,29.19,West,270,9.8,9.8,25,0.00,,,0.00,WUHU216HW,2013-02-13 00:13:00,
2013-02-12 18:18:00,65.3,27.1,29.19,SW,225,20.5,20.5,24,0.00,,,0.00,WUHU216HW,2013-02-13 00:18:00,
2013-02-12 18:23:00,64.9,25.8,29.20,SW,225,19.4,20.5,23,0.00,,,0.00,WUHU216HW,2013-02-13 00:23:00,
2013-02-12 18:28:00,64.7,26.7,29.21,West,270,0.0,19.4,24,0.00,,,0.00,WUHU216HW,2013-02-13 00:28:00,
2013-02-12 18:33:00,64.5,26.5,29.21,WSW,248,6.2,19.4,24,0.00,,,0.00,WUHU216HW,2013-02-13 00:33:00,
2013-02-12 18:38:00,64.2,27.2,29.21,WNW,293,0.0,6.2,25,0.00,,,0.00,WUHU216HW,2013-02-13 00:38:00,
2013-02-12 18:43:00,64.2,27.2,29.22,WSW,248,2.2,2.4,25,0.00,,,0.00,WUHU216HW,2013-02-13 00:43:00,
2013-02-12 18:48:00,64.0,26.1,29.22,NW,315,0.8,2.4,24,0.00,,,0.00,WUHU216HW,2013-02-13 00:48:00,
2013-02-12 18:53:00,63.6,26.7,29.23,WNW,293,2.2,2.4,25,0.00,,,0.00,WUHU216HW,2013-02-13 00:53:00,
2013-02-12 18:58:00,63.3,26.4,29.22,West,270,2.2,3.8,25,0.00,,,0.00,WUHU216HW,2013-02-13 00:58:00,
2013-02-12 19:03:00,63.1,26.3,29.23,WSW,248,5.5,9.1,25,0.00,,,0.00,WUHU216HW,2013-02-13 01:03:00,
2013-02-12 19:08:00,62.9,26.1,29.22,WNW,293,2.9,9.1,25,0.00,,,0.00,WUHU216HW,2013-02-13 01:08:00,
2013-02-12 19:13:00,62.7,26.0,29.22,West,270,3.5,3.5,25,0.00,,,0.00,WUHU216HW,2013-02-13 01:13:00,
2013-02-12 19:18:00,62.6,26.8,29.23,WNW,293,0.0,3.5,26,0.00,,,0.00,WUHU216HW,2013-02-13 01:18:00,
2013-02-12 19:23:00,62.4,26.6,29.23,WNW,293,0.8,3.5,26,0.00,,,0.00,WUHU216HW,2013-02-13 01:23:00,
2013-02-12 19:28:00,62.2,27.5,29.24,WNW,293,0.8,2.6,27,0.00,,,0.00,WUHU216HW,2013-02-13 01:28:00,
2013-02-12 19:33:00,61.8,27.1,29.24,WNW,293,2.0,2.0,27,0.00,,,0.00,WUHU216HW,2013-02-13 01:33:00,
2013-02-12 19:38:00,61.7,28.0,29.25,West,270,2.9,2.9,28,0.00,,,0.00,WUHU216HW,2013-02-13 01:38:00,
2013-02-12 19:43:00,61.5,27.8,29.25,WNW,293,2.0,2.9,28,0.00,,,0.00,WUHU216HW,2013-02-13 01:43:00,
2013-02-12 19:48:00,61.5,27.8,29.25,WNW,293,0.6,2.9,28,0.00,,,0.00,WUHU216HW,2013-02-13 01:48:00,
2013-02-12 19:53:00,61.3,27.6,29.25,NNW,338,3.5,4.9,28,0.00,,,0.00,WUHU216HW,2013-02-13 01:53:00,
2013-02-12 19:59:00,61.1,27.5,29.25,WNW,293,6.4,6.4,28,0.00,,,0.00,WUHU216HW,2013-02-13 01:59:00,
2013-02-12 20:04:00,60.9,27.3,29.25,WNW,293,4.6,6.4,28,0.00,,,0.00,WUHU216HW,2013-02-13 02:04:00,
2013-02-12 20:09:00,60.9,27.3,29.26,NW,315,3.5,6.4,28,0.00,,,0.00,WUHU216HW,2013-02-13 02:09:00,
2013-02-12 20:14:00,60.8,27.2,29.27,WNW,293,3.8,4.9,28,0.00,,,0.00,WUHU216HW,2013-02-13 02:14:00,
2013-02-12 20:19:00,60.9,28.3,29.27,WNW,293,4.4,4.4,29,0.00,,,0.00,WUHU216HW,2013-02-13 02:19:00,
2013-02-12 20:24:00,60.6,28.0,29.27,WNW,293,11.8,11.8,29,0.00,,,0.00,WUHU216HW,2013-02-13 02:24:00,
2013-02-12 20:29:00,60.6,28.9,29.27,NNW,338,3.5,13.6,30,0.00,,,0.00,WUHU216HW,2013-02-13 02:29:00,
2013-02-12 20:34:00,60.4,30.2,29.28,NNW,338,12.3,13.6,32,0.00,,,0.00,WUHU216HW,2013-02-13 02:34:00,
2013-02-12 20:39:00,60.2,35.1,29.29,NW,315,6.2,16.3,39,0.00,,,0.00,WUHU216HW,2013-02-13 02:39:00,
2013-02-12 20:44:00,59.9,35.5,29.29,NNW,338,1.7,16.3,40,0.00,,,0.00,WUHU216HW,2013-02-13 02:44:00,
2013-02-12 20:49:00,59.5,35.7,29.29,WNW,293,4.0,7.6,41,0.00,,,0.00,WUHU216HW,2013-02-13 02:49:00,
2013-02-12 20:54:00,59.3,36.7,29.30,NNW,338,14.5,14.5,43,0.00,,,0.00,WUHU216HW,2013-02-13 02:54:00,
2013-02-12 20:59:00,59.1,36.5,29.30,WNW,293,15.2,15.2,43,0.00,,,0.00,WUHU216HW,2013-02-13 02:59:00,
2013-02-12 21:04:00,58.8,37.4,29.30,West,270,0.0,15.2,45,0.00,,,0.00,WUHU216HW,2013-02-13 03:04:00,
2013-02-12 21:09:00,58.6,37.2,29.31,NW,315,7.8,20.5,45,0.00,,,0.00,WUHU216HW,2013-02-13 03:09:00,
2013-02-12 21:14:00,58.2,37.5,29.32,WNW,293,2.0,20.5,46,0.00,,,0.00,WUHU216HW,2013-02-13 03:14:00,
2013-02-12 21:19:00,57.9,37.1,29.32,NW,315,14.7,15.6,46,0.00,,,0.00,WUHU216HW,2013-02-13 03:19:00,
2013-02-12 21:24:00,57.5,37.4,29.32,WNW,293,1.3,15.6,47,0.00,,,0.00,WUHU216HW,2013-02-13 03:24:00,
2013-02-12 21:29:00,57.3,38.4,29.32,NW,315,8.0,14.5,49,0.00,,,0.00,WUHU216HW,2013-02-13 03:29:00,
2013-02-12 21:34:00,57.0,38.0,29.33,NNW,338,9.6,14.5,49,0.00,,,0.00,WUHU216HW,2013-02-13 03:34:00,
2013-02-12 21:39:00,56.8,37.9,29.33,NW,315,9.6,9.6,49,0.00,,,0.00,WUHU216HW,2013-02-13 03:39:00,
2013-02-12 21:44:00,56.4,38.5,29.34,West,270,5.1,9.6,51,0.00,,,0.00,WUHU216HW,2013-02-13 03:44:00,
2013-02-12 21:49:00,56.1,38.2,29.33,NNW,338,10.5,12.3,51,0.00,,,0.00,WUHU216HW,2013-02-13 03:49:00,
2013-02-12 21:54:00,55.9,38.0,29.33,WNW,293,5.5,14.0,51,0.00,,,0.00,WUHU216HW,2013-02-13 03:54:00,
2013-02-12 21:59:00,55.5,36.6,29.34,WNW,293,5.8,14.0,49,0.00,,,0.00,WUHU216HW,2013-02-13 03:59:00,
2013-02-12 22:04:00,55.5,36.6,29.35,WNW,293,11.6,14.0,49,0.00,,,0.00,WUHU216HW,2013-02-13 04:04:00,
2013-02-12 22:09:00,55.2,36.3,29.35,WNW,293,6.2,14.0,49,0.00,,,0.00,WUHU216HW,2013-02-13 04:09:00,
2013-02-12 22:14:00,55.0,36.1,29.36,West,270,2.9,11.6,49,0.00,,,0.00,WUHU216HW,2013-02-13 04:14:00,
2013-02-12 22:19:00,54.6,35.8,29.36,West,270,2.6,6.9,49,0.00,,,0.00,WUHU216HW,2013-02-13 04:19:00,
2013-02-12 22:24:00,54.6,36.3,29.37,NW,315,2.4,8.7,50,0.00,,,0.00,WUHU216HW,2013-02-13 04:24:00,
2013-02-12 22:29:00,54.6,36.3,29.37,West,270,3.3,17.2,50,0.00,,,0.00,WUHU216HW,2013-02-13 04:29:00,
2013-02-12 22:34:00,54.5,36.2,29.37,NNW,338,5.1,17.2,50,0.00,,,0.00,WUHU216HW,2013-02-13 04:34:00,
2013-02-12 22:39:00,53.9,35.1,29.37,WNW,293,8.2,8.2,49,0.00,,,0.00,WUHU216HW,2013-02-13 04:39:00,
2013-02-12 22:44:00,53.7,35.0,29.37,NW,315,3.5,8.2,49,0.00,,,0.00,WUHU216HW,2013-02-13 04:44:00,
2013-02-12 22:49:00,53.4,34.7,29.37,West,270,6.4,8.2,49,0.00,,,0.00,WUHU216HW,2013-02-13 04:49:00,
2013-02-12 22:54:00,53.4,35.2,29.37,WNW,293,2.0,12.7,50,0.00,,,0.00,WUHU216HW,2013-02-13 04:54:00,
2013-02-12 22:59:00,53.4,35.2,29.37,WNW,293,4.0,12.7,50,0.00,,,0.00,WUHU216HW,2013-02-13 04:59:00,
2013-02-12 23:04:00,53.4,35.2,29.38,NW,315,7.1,7.1,50,0.00,,,0.00,WUHU216HW,2013-02-13 05:04:00,
2013-02-12 23:09:00,53.2,35.0,29.38,WSW,248,3.3,7.1,50,0.00,,,0.00,WUHU216HW,2013-02-13 05:09:00,
2013-02-12 23:14:00,53.2,35.0,29.38,West,270,2.0,7.8,50,0.00,,,0.00,WUHU216HW,2013-02-13 05:14:00,
2013-02-12 23:19:00,53.2,35.5,29.38,NW,315,7.8,7.8,51,0.00,,,0.00,WUHU216HW,2013-02-13 05:19:00,
2013-02-12 23:24:00,53.2,35.0,29.39,WNW,293,3.1,7.8,50,0.00,,,0.00,WUHU216HW,2013-02-13 05:24:00,
2013-02-12 23:29:00,52.8,35.2,29.40,West,270,6.7,12.7,51,0.00,,,0.00,WUHU216HW,2013-02-13 05:29:00,
2013-02-12 23:34:00,52.8,35.2,29.40,NNW,338,14.3,14.3,51,0.00,,,0.00,WUHU216HW,2013-02-13 05:34:00,
2013-02-12 23:39:00,52.3,34.2,29.39,NW,315,21.4,21.4,50,0.00,,,0.00,WUHU216HW,2013-02-13 05:39:00,
2013-02-12 23:44:00,51.6,33.6,29.39,NNW,338,6.9,21.4,50,0.00,,,0.00,WUHU216HW,2013-02-13 05:44:00,
2013-02-12 23:49:00,51.8,33.8,29.40,NW,315,3.3,21.4,50,0.00,,,0.00,WUHU216HW,2013-02-13 05:49:00,
2013-02-12 23:54:00,51.2,33.7,29.40,West,270,2.6,15.2,51,0.00,,,0.00,WUHU216HW,2013-02-13 05:54:00,
2013-02-12 23:59:00,51.0,33.6,29.40,WSW,248,1.1,8.2,51,0.00,,,0.00,WUHU216HW,2013-02-13 05:59:00,